Temp
16 16 17 17 17 17 17 17 18 18 18 19 19 20 20 20 21 20 28 28 28 26 26 30 31 31 32 35 34 33 31 27 31 31 32 33 33 34 34 33 34 34 34 32 30
16 16 17 17 17 17 18 18 19 19 19 19 19 20 20 20 19 28 27 27 27 26 28 32 33 33 34 35 32 33 27 30 31 30 29 31 33 33 33 33 33 33 32 30 30
16 17 17 17 17 17 17 18 19 19 19 19 20 20 20 19 25 31 26 26 26 26 29 32 34 34 34 36 33 30 28 32 30 29 27 28 32 34 33 31 34 32 31 31 30
17 17 17 17 17 18 18 18 19 20 20 20 20 20 19 18 31 29 26 26 26 26 30 32 34 34 34 33 35 31 31 31 31 29 27 26 27 33 32 29 34 33 32 32 31
16 17 17 17 17 18 19 20 20 20 20 20 20 20 19 28 32 26 26 26 26 28 32 34 34 35 34 35 35 31 31 29 31 31 28 28 29 28 32 34 34 33 33 32 32
16 17 17 17 17 19 20 20 21 21 21 21 20 19 22 30 29 27 27 27 30 31 33 34 35 35 35 35 34 32 33 32 31 31 30 30 30 30 33 33 34 33 33 33 32
16 16 16 16 17 19 20 21 22 22 22 21 21 18 28 30 29 28 29 31 31 32 34 34 34 34 36 35 34 34 32 31 29 30 29 31 29 31 33 33 33 33 33 34 33
16 16 16 17 17 19 21 22 22 22 22 21 20 20 31 29 29 29 30 30 30 31 32 33 33 34 35 35 34 34 34 31 31 30 29 27 28 29 31 33 33 32 34 33 32
15 16 17 17 18 20 21 22 21 21 21 20 19 25 31 28 30 30 30 32 31 31 31 31 33 34 35 34 34 34 33 32 31 30 30 29 23 24 25 31 31 30 34 34 32
15 16 18 18 19 20 21 20 19 20 20 20 24 29 31 32 31 31 31 31 33 33 32 32 33 34 34 35 34 35 34 34 32 31 30 30 28 28 25 27 25 31 33 34 33
16 17 18 18 19 21 20 19 24 26 27 31 33 32 32 32 31 31 31 32 33 33 32 33 33 33 35 36 36 35 34 33 33 31 31 31 31 30 28 27 29 29 31 34 34
16 17 18 19 20 22 21 30 29 29 31 32 32 32 32 32 32 32 31 32 32 32 34 33 33 35 36 36 35 34 34 34 32 31 30 32 31 32 29 28 31 24 31 33 34
16 17 18 20 21 22 27 28 27 27 30 32 33 33 33 32 33 32 33 33 32 33 33 34 35 35 34 33 33 34 34 34 33 31 31 31 31 32 32 30 30 29 29 34 34
16 17 18 21 22 26 28 27 27 27 31 32 32 33 33 33 33 33 33 33 33 33 33 34 35 33 33 33 34 34 35 34 33 31 31 30 31 32 33 30 30 31 31 33 33
16 16 18 17 19 27 28 27 27 29 30 33 33 33 34 33 33 33 33 33 32 33 33 33 33 32 33 34 35 34 35 34 33 32 33 33 31 34 35 31 30 31 32 31 33
17 16 18 18 19 25 26 27 28 30 31 32 33 33 33 34 34 33 32 33 34 33 33 34 34 34 34 34 34 35 33 33 33 33 32 34 33 34 33 33 32 31 31 31 33
17 17 17 16 27 26 27 29 30 30 34 33 33 33 33 33 33 33 32 32 32 31 32 33 33 34 34 33 34 33 33 32 32 32 33 34 34 35 33 34 34 33 32 30 32
18 18 18 19 24 24 26 29 28 33 33 35 34 34 33 33 33 33 33 33 33 33 34 33 32 33 34 33 34 33 34 34 31 34 30 33 33 33 29 36 36 35 33 32 31
18 21 22 24 21 24 28 29 30 33 35 33 33 33 33 33 33 33 33 34 34 34 32 33 33 34 34 34 34 34 33 35 34 35 35 33 33 36 33 34 35 34 33 31 31
14 23 26 24 23 25 28 28 33 34 34 34 32 33 33 33 32 33 33 34 33 33 33 33 31 34 34 34 34 33 30 31 34 31 31 34 33 34 31 33 33 34 33 32 31
16 27 25 24 24 28 28 30 32 34 33 33 33 33 33 33 33 33 33 33 33 32 33 33 33 33 33 33 33 33 33 30 32 31 30 32 31 22 32 32 33 32 33 33 32
22 26 24 24 26 28 29 32 32 33 33 33 33 34 33 33 32 32 32 32 32 33 32 33 32 32 33 34 35 34 31 33 33 31 28 29 28 26 33 33 32 30 31 31 31
23 27 24 25 26 29 30 32 32 32 32 32 32 33 33 32 31 31 32 32 31 31 31 32 31 30 32 34 34 33 34 34 32 32 30 30 30 27 29 33 32 31 30 27 29
22 25 27 26 28 29 30 31 30 32 33 33 33 33 32 31 32 31 31 31 31 31 26 29 30 30 30 31 32 30 32 28 26 32 31 32 31 27 27 30 31 31 30 27 25
23 25 25 26 27 28 30 31 30 30 32 33 32 32 32 30 31 30 31 31 31 25 28 30 29 30 31 32 32 32 29 22 21 28 32 32 29 31 22 28 27 29 29 27 23
20 22 23 24 26 28 26 29 30 31 31 31 31 32 32 31 31 31 31 31 30 31 30 31 29 29 29 31 32 31 31 24 26 31 29 32 31 30 29 27 27 29 28 28 28
17 19 20 21 25 27 28 28 29 31 32 32 31 31 32 32 33 33 32 32 32 30 30 30 30 29 29 31 30 29 31 29 30 32 26 28 31 24 27 25 23 24 28 23 29
Height
814 811 809 806 804 802 800 798 795 793 791 790 788 787 785 783 781 780 775 773 773 774 774 771 771 768 764 753 756 756 776 798 776 776 770 764 770 763 762 769 767 768 768 779 793
814 812 810 807 805 802 800 798 796 793 792 790 788 786 784 782 780 773 772 772 772 773 774 768 765 762 758 752 760 763 790 784 769 774 778 776 767 767 770 771 774 771 777 789 795
815 813 810 807 805 802 800 797 795 793 791 789 787 785 783 781 777 761 769 771 771 772 772 766 760 758 757 746 759 772 789 769 775 777 782 784 769 762 770 782 767 778 784 790 795
815 813 810 807 804 802 799 797 794 792 790 788 786 784 781 783 771 765 769 770 771 773 771 765 759 760 756 760 750 775 772 773 772 778 786 790 785 770 772 783 763 774 782 789 791
815 813 810 807 804 801 798 795 793 790 788 787 785 783 782 772 762 768 767 770 771 771 766 760 758 755 757 753 753 772 774 779 771 776 784 785 783 784 773 766 767 776 782 785 788
815 812 809 806 803 799 796 793 790 787 786 785 783 782 781 769 768 769 770 771 769 768 763 759 753 748 750 756 757 763 762 769 771 774 778 783 776 776 768 769 771 778 780 781 787
814 811 808 804 801 797 794 790 787 785 783 783 782 782 774 767 768 770 769 767 767 765 761 759 756 756 746 758 753 755 774 775 781 777 781 774 788 777 767 772 775 777 777 779 786
813 810 807 803 799 795 791 787 784 782 781 780 780 782 765 770 769 769 767 767 768 766 764 761 762 754 753 748 755 763 756 784 775 778 783 791 802 783 770 771 775 778 776 780 787
811 808 805 801 797 792 788 785 783 781 780 779 780 776 765 770 768 765 765 762 764 765 766 766 762 755 753 764 764 761 778 775 779 773 779 787 812 797 789 778 780 784 775 779 786
810 807 803 799 795 790 786 784 782 781 780 782 778 774 762 759 761 763 764 764 761 762 765 765 761 761 759 760 775 761 769 765 777 777 779 785 793 789 794 788 793 779 775 776 779
809 805 801 797 793 789 785 784 784 779 773 760 754 756 755 758 763 761 763 763 759 760 767 761 771 770 754 747 742 755 760 770 765 774 779 779 780 781 786 790 783 782 777 772 775
807 803 800 796 791 788 785 773 774 775 763 756 757 756 756 755 758 758 761 762 762 767 756 765 771 745 739 743 753 759 768 769 769 773 780 772 777 764 776 781 775 791 774 770 773
805 801 798 793 789 787 781 776 777 775 766 757 751 749 752 754 751 755 757 753 759 760 761 760 745 738 752 761 766 760 763 761 770 775 772 776 776 766 762 769 772 775 776 763 768
804 800 796 790 791 783 777 778 777 775 769 761 755 749 751 746 754 749 752 752 756 759 755 754 740 759 762 763 757 767 747 759 769 783 789 775 789 761 755 766 767 767 766 764 765
802 799 796 794 789 781 779 777 776 774 784 746 746 744 742 747 749 753 751 752 758 758 758 756 757 765 765 759 750 761 746 760 763 772 769 766 783 752 737 760 763 761 760 763 765
800 797 793 792 789 782 780 778 775 783 779 753 742 750 751 744 745 748 753 749 743 755 755 750 742 748 749 747 751 747 760 760 759 763 786 759 764 751 742 746 746 752 756 759 757
796 793 790 790 779 781 780 775 783 779 737 751 750 744 744 748 749 750 757 760 760 772 767 756 754 749 747 760 749 756 764 781 785 779 772 741 754 742 737 723 727 738 748 757 756
791 787 783 781 780 781 780 776 786 744 741 730 738 740 749 745 745 748 751 754 748 749 749 760 771 749 743 754 753 757 756 762 785 764 781 749 760 747 738 717 712 720 734 748 752
786 779 778 774 776 779 775 778 763 737 726 739 740 750 749 746 748 750 751 744 740 744 762 753 759 738 738 739 744 750 763 738 752 738 747 748 749 721 730 725 719 722 730 746 751
787 776 766 770 773 775 772 767 739 724 724 730 751 740 748 745 755 751 746 739 747 748 743 748 770 739 738 740 740 748 757 773 753 782 779 745 751 740 744 736 729 726 732 739 746
785 765 764 768 771 767 765 751 735 723 730 738 739 742 742 746 747 745 745 744 745 749 746 745 753 752 746 751 751 749 757 768 758 766 782 767 760 783 740 735 729 728 729 729 742
780 765 765 766 769 756 753 736 723 727 729 730 731 733 741 744 750 750 751 745 742 746 757 746 752 758 747 731 724 732 756 749 755 767 777 776 776 752 735 733 734 739 736 737 738
775 757 762 763 763 749 741 732 725 732 731 736 738 731 735 747 760 751 748 745 750 755 757 750 761 772 757 739 728 743 738 737 746 750 766 771 762 756 751 734 735 739 740 748 745
781 762 753 760 747 738 734 735 737 726 724 726 731 729 741 747 746 754 756 749 753 754 764 764 767 772 772 752 749 762 750 764 772 747 755 750 751 763 760 749 740 738 742 753 755
778 760 755 754 751 743 732 728 739 736 728 722 734 733 741 753 749 755 749 747 751 764 763 762 774 760 752 743 742 745 761 786 799 766 745 744 758 745 769 754 749 740 741 751 758
785 777 768 759 746 741 742 736 732 725 729 735 739 735 734 745 742 749 745 750 755 748 757 749 767 761 763 744 742 748 743 777 773 747 752 737 748 739 739 744 739 736 742 747 749
792 788 785 767 751 745 737 736 732 723 720 723 729 732 734 732 727 728 732 735 737 750 753 754 757 761 764 742 750 757 741 749 744 733 758 760 738 749 747 754 755 753 741 756 741
Wind_Speed
14 14 14 14 14 13 11 10 9 8 8 8 8 8 9 10 10 7 10 2 5 7 9 9 11 12 11 9 3 4 3 5 6 14 12 4 8 8 3 10 6 3 14 21 21
14 15 15 14 13 13 12 11 10 9 8 8 8 8 10 12 11 13 5 6 7 10 10 12 12 12 13 6 1 4 3 3 7 10 11 4 3 5 8 10 9 12 20 22 20
14 14 15 15 15 15 13 11 9 9 9 9 9 9 10 9 11 9 3 7 9 11 11 12 10 12 10 4 3 3 2 5 9 10 6 3 6 5 5 3 11 14 17 19 18
14 14 15 16 16 15 13 13 12 10 9 9 9 9 10 6 1 7 2 9 12 9 9 11 12 12 15 6 8 4 2 1 8 7 4 4 12 5 5 11 6 17 18 17 16
14 15 15 16 17 16 15 14 13 13 10 8 8 8 5 9 4 3 6 11 13 8 11 11 12 12 12 2 6 11 9 3 7 10 7 12 16 5 6 5 14 17 16 16 14
15 15 16 17 18 17 17 16 15 13 10 8 7 7 7 10 4 5 9 10 10 12 10 10 10 5 4 2 6 5 8 4 6 6 7 15 10 20 9 2 15 16 15 14 12
15 16 17 18 19 19 19 17 15 13 9 6 5 4 12 6 5 8 8 6 8 9 8 11 7 8 4 7 2 8 7 7 4 4 6 9 7 6 10 13 14 14 13 13 12
15 17 18 19 20 20 20 15 13 7 3 3 3 5 3 6 4 6 6 5 5 7 9 4 9 14 9 6 8 12 10 8 7 6 6 4 7 7 6 12 15 13 13 12 12
17 17 19 19 21 22 17 11 5 1 2 2 4 9 9 6 10 9 7 6 4 6 5 5 12 14 11 12 13 7 9 6 8 5 8 11 4 6 13 4 10 9 14 14 14
18 18 18 19 21 20 12 5 4 1 3 6 11 8 10 7 8 5 9 5 4 7 8 10 9 12 11 13 11 9 8 3 6 7 9 13 7 12 9 10 4 15 13 15 17
19 19 18 19 20 15 9 4 6 7 13 11 3 2 8 8 6 9 9 10 8 10 13 14 11 14 17 14 12 6 5 5 11 3 5 10 14 13 14 11 15 13 13 17 16
21 20 20 19 19 8 10 6 8 7 6 4 2 3 2 3 8 5 11 11 10 13 13 9 14 15 13 4 5 10 9 8 4 4 7 6 11 10 18 18 18 15 15 18 16
22 20 20 18 13 5 8 6 6 8 8 9 7 6 10 12 3 10 14 11 10 12 10 15 10 4 3 9 12 13 12 6 1 6 10 9 15 17 16 18 18 14 12 18 20
22 20 20 19 5 5 8 1 8 5 6 12 11 6 7 7 5 4 13 6 4 9 10 12 9 3 11 13 12 13 11 8 3 6 5 7 8 14 18 17 19 20 14 19 16
23 21 18 15 14 9 4 6 8 7 6 11 10 8 8 9 11 7 8 6 12 8 7 11 8 10 13 13 10 12 6 6 9 12 12 10 7 13 17 15 19 22 22 20 23
24 22 21 2 8 12 8 10 8 8 3 9 9 11 11 9 6 8 6 9 6 3 10 13 6 11 11 4 6 8 4 12 9 10 11 18 14 11 5 12 15 20 21 19 26
25 24 19 10 6 3 7 10 7 10 6 10 12 10 12 10 7 11 11 12 9 10 13 13 12 11 10 8 12 12 13 9 11 10 13 8 7 8 12 18 11 20 23 23 19
29 22 12 13 7 9 10 9 13 10 12 6 4 10 10 7 5 7 8 11 4 8 5 8 13 16 11 15 9 14 16 13 8 8 6 7 6 3 9 9 4 11 22 22 20
27 10 10 7 15 10 8 13 15 10 7 8 10 11 9 7 7 7 10 8 5 4 9 2 7 7 4 10 14 12 14 19 18 17 14 11 15 7 11 15 4 9 13 18 23
15 14 16 10 12 14 10 19 16 5 4 9 13 12 10 12 9 7 11 4 3 2 7 5 7 11 9 11 9 18 4 8 9 16 13 9 11 2 6 10 12 5 16 20 20
8 6 8 9 14 9 13 20 19 7 9 11 12 5 10 2 7 5 2 9 1 7 7 12 6 5 5 12 15 11 12 12 12 11 7 13 5 8 11 13 8 4 1 16 15
8 7 6 14 10 12 15 23 11 11 11 9 7 9 6 6 8 6 4 2 7 4 8 5 8 11 12 2 10 7 12 21 11 10 6 14 2 11 13 11 12 13 4 6 12
5 8 7 14 8 13 20 22 8 17 16 15 12 7 5 6 4 5 3 11 3 8 2 6 7 10 15 15 15 10 16 14 13 11 13 8 1 3 16 6 9 10 7 1 9
5 5 5 8 14 18 14 19 14 19 14 15 12 11 8 7 4 4 5 7 3 9 10 5 14 15 14 17 4 11 17 17 16 12 16 11 1 8 5 15 6 6 4 5 6
4 4 7 5 13 17 17 17 19 16 15 13 13 12 13 9 11 8 5 7 11 9 7 10 14 14 16 18 15 15 7 8 21 37 16 9 12 7 8 17 5 3 4 10 9
4 5 9 13 13 14 16 17 18 20 16 19 16 16 14 13 9 3 7 7 7 14 8 11 11 10 13 17 16 14 14 27 33 18 2 18 12 7 13 5 7 7 9 9 13
5 9 5 10 11 11 13 16 18 15 15 14 16 16 16 14 11 1 3 5 3 5 9 9 10 11 14 12 11 16 14 15 18 18 4 10 12 18 14 9 8 12 4 5 11
Wind_Direction
12 10 8 6 4 1 358 357 354 349 344 339 332 322 319 317 305 269 248 115 210 223 199 211 211 214 232 235 247 263 290 317 10 106 113 97 129 71 68 138 150 46 138 131 145
5 3 2 0 1 359 357 358 354 350 347 343 334 325 321 321 292 249 219 249 222 195 212 204 204 203 224 223 71 311 297 135 68 82 80 200 186 127 160 120 139 100 98 132 151
1 359 356 356 355 353 348 349 346 338 332 332 334 327 319 326 266 109 169 206 189 183 243 234 230 217 247 190 138 265 340 90 114 99 60 330 235 146 198 95 143 136 138 147 159
359 356 354 352 349 345 341 335 332 326 324 321 326 328 319 275 303 79 280 176 174 198 237 224 232 218 247 181 136 66 84 51 124 136 104 329 317 158 126 196 141 136 145 152 172
357 354 352 349 345 341 337 328 323 316 307 309 317 323 311 219 66 23 153 161 185 218 230 215 213 221 251 77 236 129 147 190 158 159 157 213 244 15 204 110 124 140 152 165 168
353 351 348 345 342 336 332 321 313 306 294 294 300 310 245 244 86 124 142 166 184 211 223 237 230 245 330 252 263 238 125 147 162 205 197 199 245 184 149 196 133 152 160 167 152
348 346 344 340 337 333 327 318 311 303 287 273 274 286 256 59 124 142 164 190 188 228 220 229 288 218 169 171 223 117 154 151 154 226 213 214 239 199 172 192 154 168 171 157 156
343 343 341 339 334 331 323 315 312 309 273 232 245 249 46 134 151 178 175 168 202 222 267 210 239 258 246 72 201 222 196 171 130 167 153 187 202 24 279 183 168 178 171 168 155
341 339 340 337 335 331 322 315 319 340 172 178 240 227 129 171 205 195 209 232 172 197 209 241 238 235 190 225 224 196 254 157 130 192 152 213 127 242 318 248 185 210 173 176 158
340 337 339 338 337 330 326 305 283 204 279 246 265 254 158 177 145 177 203 216 212 175 190 204 218 219 228 221 221 221 210 156 147 146 201 207 201 167 205 261 272 184 216 187 171
337 334 338 336 335 326 325 274 209 202 222 295 108 305 131 121 173 210 189 207 207 212 213 206 216 213 223 230 279 300 20 306 92 135 231 219 213 196 200 226 226 248 213 185 194
340 336 337 335 331 306 296 268 29 346 268 161 183 254 197 250 164 175 187 210 205 217 225 181 231 226 247 227 249 228 224 215 98 167 244 243 256 217 192 208 231 187 225 198 190
341 337 336 333 323 274 274 351 327 326 255 153 181 200 166 211 233 143 205 229 219 231 205 234 169 175 151 214 239 237 250 238 261 153 238 262 260 219 204 204 217 238 234 202 189
342 336 338 333 288 320 259 270 314 308 267 143 181 143 172 255 134 126 217 236 228 231 220 239 127 212 217 239 222 247 203 268 280 229 281 212 296 187 200 210 211 215 210 205 215
340 334 331 326 304 256 25 304 315 255 255 145 128 124 162 246 125 155 188 205 254 206 240 207 159 212 221 229 236 265 18 275 228 255 271 231 243 276 185 199 209 214 217 204 211
332 330 322 286 243 252 291 294 271 235 243 147 152 191 196 200 155 125 174 255 341 240 223 282 213 219 234 194 264 272 246 245 246 244 254 248 221 263 218 206 200 203 203 224 192
324 322 301 271 242 274 260 260 222 248 90 151 188 182 221 155 157 181 187 199 211 205 197 198 206 215 246 221 207 228 224 222 216 213 240 141 236 264 189 187 197 189 196 207 222
322 311 279 233 250 249 240 230 235 237 210 118 190 186 209 161 178 199 200 216 191 285 267 220 184 195 181 240 225 211 243 248 230 265 72 347 249 156 9 330 334 186 189 198 225
327 294 233 248 213 216 227 225 214 250 242 177 191 203 192 183 287 217 227 259 76 241 308 305 208 118 246 209 245 231 213 262 287 283 265 172 218 97 65 10 353 190 159 193 208
321 288 247 184 185 200 224 240 236 252 187 219 203 217 218 183 194 196 187 124 160 296 302 18 273 182 205 228 239 263 29 268 233 266 269 262 283 68 75 357 329 198 177 178 214
280 249 114 171 178 211 219 232 240 184 227 219 234 185 254 188 243 219 245 107 245 149 278 311 276 127 187 218 245 197 216 215 220 278 311 286 118 134 356 24 329 111 242 184 195
283 242 136 171 197 216 225 237 232 211 203 244 283 225 217 162 228 244 258 90 84 316 266 32 303 282 243 79 224 179 211 275 274 202 190 240 26 359 334 39 0 132 88 340 182
283 289 153 207 221 219 227 239 206 240 193 221 212 218 174 208 240 282 206 91 132 258 318 345 253 262 243 249 200 228 251 260 234 270 274 307 103 45 306 297 56 329 103 355 191
281 258 165 211 253 271 221 232 210 239 221 211 221 203 179 212 194 182 225 139 215 256 54 328 275 274 282 311 265 269 267 333 333 257 246 233 208 150 340 315 328 13 159 140 168
247 284 3 203 230 245 259 223 224 205 226 212 214 218 202 214 207 207 245 155 185 149 225 231 253 261 269 275 282 266 177 3 322 284 273 230 355 222 138 253 292 347 110 155 196
313 339 350 296 302 241 244 261 226 223 189 226 225 214 236 220 243 265 184 211 282 167 227 242 258 277 282 285 276 265 226 177 214 282 231 274 210 39 152 117 49 343 135 251 194
354 288 274 288 264 249 241 224 247 235 224 210 218 242 214 231 241 260 275 301 241 256 258 236 282 271 264 273 306 271 267 313 271 245 280 291 289 84 334 36 22 3 17 218 255